Weather History for Lewistown, MT

Change the Weather History Date:

Friday, January 24, 2014

  Actual Average Record
Temperature  
Mean Temperature 41 °F 24 °F  
Max Temperature 50 °F 35 °F 65 °F (2005)
Min Temperature 32 °F 14 °F -34 °F (1957)
Degree Days  
Heating Degree Days 24 41  
Month to date heating degree days 882 996  
Since 1 July heating degree days 4275 4418  
Cooling Degree Days 0 0  
Month to date cooling degree days 0 0  
Year to date cooling degree days 0 0  
Moisture  
Dew Point 29 °F    
Average Humidity 61    
Maximum Humidity 76    
Minimum Humidity 46    
Precipitation  
Precipitation 0.00 in 0.02 in 0.26 in (1959)
Month to date precipitation 0.54 0.45  
Year to date precipitation 0.54 0.45  
Snow  
Snow 0.00 in - - ()
Snow Depth 0.00 in    
Sea Level Pressure  
Sea Level Pressure 30.23 in    
Wind  
Wind Speed 12 mph (West)    
Max Wind Speed 29 mph    
Max Gust Speed 39 mph    
Visibility 10 miles    
Events      
T = Trace of Precipitation, MM = Missing Value Source: NWS Daily Summary

Daily Weather History Graph

Daily Weather History Graph

Search for Another Location

Airport:

Trip Planner

Search our weather history database for the weather conditions in past years. The results will help you decide how hot, cold, wet, or windy it might be!

Date:

Astronomy

Jan. 24, 2014 Rise Set
Actual Time 7:51 AM MST 5:08 PM MST
Civil Twilight 7:18 AM MST 5:42 PM MST
Nautical Twilight 6:41 AM MST 6:19 PM MST
Astronomical Twilight 6:05 AM MST 6:55 PM MST
Moon 1:17 AM MST (1/24) 11:33 AM MST (1/24)
Length of Visible Light 10h 23m
Length of Day
9h 16m
Last Quarter, 44% of the Moon is Illuminated
Jan 24
Last Quarter
Jan 30
New
Feb 6
First Quarter
Feb 14
Full
Feb 22
Last Quarter

Hourly Weather History & Observations

Time (MST) Temp. Windchill Dew Point Humidity Pressure Visibility Wind Dir Wind Speed Gust Speed Precip Events Conditions
12:54 AM 39.0 °F 32.3 °F 25.0 °F 57% 30.27 in 10.0 mi WNW 10.4 mph - N/A   Overcast
1:54 AM 39.0 °F 32.8 °F 25.0 °F 57% 30.26 in 10.0 mi NW 9.2 mph - N/A   Overcast
2:54 AM 39.0 °F 35.7 °F 24.1 °F 55% 30.27 in 10.0 mi WNW 4.6 mph - N/A   Overcast
3:54 AM 39.0 °F 33.4 °F 24.1 °F 55% 30.27 in 10.0 mi West 8.1 mph - N/A   Partly Cloudy
4:54 AM 37.0 °F 30.4 °F 24.1 °F 59% 30.25 in 10.0 mi WSW 9.2 mph - N/A   Clear
5:54 AM 39.0 °F 30.3 °F 26.1 °F 60% 30.23 in 10.0 mi WSW 16.1 mph - N/A   Clear
6:54 AM 37.0 °F 28.9 °F 27.0 °F 67% 30.22 in 10.0 mi WSW 12.7 mph - N/A   Clear
7:54 AM 39.0 °F 32.3 °F 28.0 °F 65% 30.20 in 10.0 mi WSW 10.4 mph - N/A   Clear
8:54 AM 39.9 °F 33.9 °F 30.0 °F 68% 30.20 in 10.0 mi WSW 9.2 mph - N/A   Clear
9:54 AM 42.1 °F 35.2 °F 28.9 °F 60% 30.22 in 10.0 mi WSW 12.7 mph - N/A   Clear
10:54 AM 45.0 °F 37.4 °F 30.0 °F 56% 30.22 in 10.0 mi West 18.4 mph - N/A   Clear
11:54 AM 48.0 °F - 30.0 °F 50% 30.18 in 10.0 mi WNW 23.0 mph 33.4 mph N/A   Clear
12:54 PM 48.0 °F - 30.9 °F 52% 30.18 in 10.0 mi WNW 23.0 mph 33.4 mph N/A   Clear
1:54 PM 50.0 °F - 30.9 °F 48% 30.17 in 10.0 mi NW 18.4 mph 29.9 mph N/A   Clear
2:54 PM 48.0 °F - 32.0 °F 54% 30.18 in 10.0 mi West 15.0 mph 20.7 mph N/A   Clear
3:54 PM 46.9 °F - 32.0 °F 56% 30.19 in 10.0 mi WNW 10.4 mph - N/A   Clear
4:54 PM 45.0 °F 38.2 °F 32.0 °F 60% 30.20 in 10.0 mi WNW 15.0 mph - N/A   Clear
5:54 PM 41.0 °F 35.8 °F 30.9 °F 67% 30.23 in 10.0 mi WNW 8.1 mph - N/A   Clear
6:54 PM 37.0 °F 28.5 °F 30.0 °F 76% 30.26 in 10.0 mi West 13.8 mph - N/A   Clear
7:54 PM 39.0 °F 30.6 °F 28.9 °F 67% 30.25 in 10.0 mi WNW 15.0 mph - N/A   Clear
8:54 PM 37.0 °F 29.3 °F 28.9 °F 73% 30.25 in 10.0 mi WNW 11.5 mph - N/A   Clear
9:54 PM 37.9 °F 30.0 °F 28.9 °F 70% 30.24 in 10.0 mi WNW 12.7 mph - N/A   Clear
10:54 PM 35.1 °F 30.1 °F 28.9 °F 78% 30.26 in 10.0 mi West 5.8 mph - N/A   Clear
11:54 PM 35.1 °F 30.1 °F 30.0 °F 82% 30.23 in 10.0 mi WSW 5.8 mph - N/A   Mostly Cloudy